RH
7 7 7 6 6 6 6 6 6 6 5 5 5 5 5 5 5 4 4 3 3 3 2 2 2 2 2 2 2 2 4 6 9 11 14 21 24 28 31 34 34 32 36 33 33 37 38 46 49 50 51 50 49 51 53 52 52 53 56 61 61 59 58 63 63 60 60 59 63 67 74 77 70 72 70 65 65 63 64 66 67 67 66 64 72 77 75 77
6 6 6 6 6 6 6 6 6 6 6 6 5 5 5 5 5 4 4 4 3 3 2 2 2 2 2 2 2 2 2 3 6 8 12 21 23 25 29 33 32 31 35 32 29 31 35 45 47 49 50 49 50 50 51 50 50 53 55 57 56 55 49 54 60 57 60 58 59 63 69 73 70 70 66 62 60 58 59 59 61 62 63 65 71 78 75 72
5 5 5 5 6 6 6 6 6 6 6 6 6 5 5 5 5 4 5 4 4 4 3 3 2 2 2 2 2 1 2 2 3 6 11 19 22 24 28 31 31 30 34 32 33 36 41 48 47 48 48 49 51 48 49 46 47 52 54 54 52 52 42 42 54 54 56 55 54 59 63 67 66 66 64 62 59 56 57 56 56 58 60 63 66 73 72 68
4 4 4 4 5 5 5 6 6 6 6 6 6 6 6 5 5 5 5 4 4 4 3 3 2 2 2 2 2 2 2 2 2 4 9 17 21 24 27 30 31 30 33 32 36 40 44 48 47 49 48 50 51 45 47 44 45 50 50 51 50 51 43 39 47 48 49 51 50 51 56 62 64 65 65 63 63 58 57 56 55 57 59 61 61 67 72 71
5 5 4 4 4 4 4 5 5 6 6 6 6 6 6 5 5 5 5 5 4 4 4 4 3 2 2 2 2 2 2 2 2 2 8 15 19 23 26 30 30 29 32 29 32 40 44 48 47 48 46 48 46 41 45 43 43 48 47 50 50 50 44 39 44 45 45 49 49 49 50 54 56 61 65 67 71 69 62 60 58 56 58 63 65 64 68 72
6 5 5 5 4 4 4 4 4 5 5 6 6 6 6 6 5 5 5 5 4 4 4 4 4 3 2 2 2 2 2 2 4 3 6 13 17 21 25 29 29 28 32 28 29 39 43 45 43 43 44 45 43 39 42 41 41 45 45 50 48 45 43 39 45 48 47 49 47 47 48 45 44 48 55 60 66 73 69 65 64 59 57 62 66 65 65 67
6 6 6 6 5 5 4 4 4 4 4 5 5 6 6 6 5 5 5 5 5 4 4 4 4 3 3 2 1 2 2 2 5 5 5 10 15 19 22 27 28 27 30 28 27 35 41 42 41 42 42 40 40 39 42 42 40 43 46 50 46 42 43 41 47 51 50 53 48 42 45 43 41 41 44 50 57 67 71 66 66 65 61 60 61 63 66 67
7 6 6 6 6 6 5 5 4 4 4 4 4 5 5 6 5 5 5 5 5 4 4 4 4 4 3 2 2 1 2 2 4 6 6 8 12 17 20 24 27 27 29 29 25 32 42 41 39 42 40 35 35 37 40 41 39 43 48 49 46 44 46 44 46 52 52 55 50 41 44 46 46 43 40 52 60 63 69 66 65 69 67 64 61 61 64 64
7 7 6 6 6 6 6 5 5 5 4 4 4 4 5 5 5 5 5 5 5 5 4 4 4 4 3 3 2 1 3 2 1 5 6 6 10 15 19 22 26 26 28 28 25 34 42 40 39 41 39 34 32 34 35 39 40 44 48 47 45 44 45 44 43 49 52 52 50 45 45 47 50 45 39 53 62 58 63 66 66 69 68 67 64 63 67 66
8 8 7 7 7 6 6 6 5 5 5 4 4 3 4 4 5 5 5 5 5 5 4 4 4 4 4 4 2 3 7 5 -0 3 6 6 8 12 17 20 24 26 27 27 25 33 39 38 39 39 37 33 31 32 32 36 36 38 45 44 43 45 43 44 42 43 47 51 54 54 51 47 46 41 37 48 58 57 59 63 64 65 65 64 64 65 71 72
9 8 8 8 7 7 7 6 6 5 5 5 4 4 3 4 5 5 5 5 5 5 4 4 4 4 4 4 2 4 10 8 2 2 4 5 7 9 14 18 22 26 26 26 25 30 35 36 38 36 36 34 30 31 32 35 34 34 41 41 42 44 39 40 43 40 40 49 57 61 57 48 42 37 34 40 50 55 56 56 59 62 62 60 61 63 67 71
10 9 9 9 8 8 7 7 6 5 5 5 5 4 3 3 4 4 5 5 5 5 5 4 4 4 4 4 3 3 8 9 5 2 2 4 6 8 12 16 21 25 26 25 25 30 35 35 35 34 36 36 30 29 33 36 36 36 37 37 39 39 37 38 43 43 37 44 55 64 64 51 42 38 33 35 42 51 56 53 53 56 58 59 59 61 63 67
10 10 10 10 9 9 8 8 7 6 5 5 5 5 4 3 3 4 4 5 5 5 5 4 4 4 4 4 4 3 4 7 6 4 2 2 4 6 10 14 19 23 26 25 25 31 34 32 31 33 35 35 31 29 31 31 32 35 35 35 34 34 37 35 39 43 36 39 51 60 63 52 45 42 37 35 36 46 56 57 56 54 53 55 60 62 63 64
11 11 10 11 11 10 9 9 8 7 6 5 5 5 4 3 3 3 4 4 5 5 5 5 4 4 4 4 4 3 3 4 5 5 5 3 2 5 7 12 17 21 26 25 26 31 29 27 28 30 33 32 30 28 28 27 30 35 37 36 31 30 33 31 35 42 34 36 49 54 54 51 49 45 39 37 37 41 49 55 59 59 53 52 57 62 63 63
11 11 11 11 11 11 10 9 9 8 7 5 4 5 4 3 3 3 4 4 4 5 5 4 4 4 4 4 4 4 3 3 3 5 7 6 3 3 5 9 14 19 24 25 26 29 26 23 23 25 30 29 27 27 26 27 30 34 36 33 28 27 30 29 32 40 36 35 48 53 50 54 56 51 45 41 39 38 41 49 55 57 56 53 57 60 61 63
12 11 11 11 11 12 11 10 9 9 8 6 4 5 4 3 3 3 3 4 4 4 4 4 5 4 4 5 4 4 6 5 6 5 5 6 4 2 4 6 10 15 21 25 26 29 30 26 21 21 27 27 25 25 26 25 27 31 32 28 25 27 29 29 28 36 40 37 43 50 49 52 56 56 56 49 41 39 38 43 48 53 56 56 58 59 58 60
12 12 11 11 12 12 12 11 10 10 9 7 5 4 4 4 4 3 3 4 4 4 4 4 4 4 5 8 9 8 10 11 10 8 6 5 5 3 4 5 8 13 18 24 26 27 34 33 25 22 24 26 25 24 25 25 26 30 29 26 26 28 28 30 28 31 40 40 40 46 44 46 51 55 60 56 46 42 39 38 41 50 59 60 62 65 63 60
12 12 12 12 12 12 12 12 11 11 10 7 5 4 4 4 3 3 3 3 4 4 4 4 3 6 7 7 12 13 14 16 14 11 7 5 5 5 4 5 7 11 16 23 26 26 33 35 29 25 23 22 22 25 26 24 25 28 27 25 26 27 26 28 27 27 35 40 41 45 40 39 47 52 56 55 50 48 44 39 39 47 59 60 61 67 67 63
12 12 12 12 12 12 13 12 12 12 10 8 6 4 4 4 4 6 5 4 5 5 6 6 4 7 11 10 13 14 12 15 14 10 6 4 5 5 4 7 8 9 14 20 25 27 29 32 30 26 23 20 20 23 24 23 23 25 26 25 23 25 25 24 24 24 29 34 38 44 41 38 42 46 51 55 54 53 48 44 42 43 51 54 56 65 66 64
13 13 12 12 12 13 13 13 13 12 11 9 6 4 4 3 6 9 7 6 8 8 6 7 5 8 15 16 14 14 11 12 13 11 7 4 5 4 5 12 14 10 12 17 24 28 28 31 31 25 21 19 17 20 22 22 22 22 24 25 22 24 25 22 23 24 27 31 35 41 45 44 40 41 52 58 59 58 52 48 46 44 47 50 57 65 63 62
14 13 12 13 13 13 13 13 14 14 12 10 7 5 4 4 6 8 6 4 7 9 6 5 5 6 15 20 15 14 14 13 14 13 9 6 7 9 9 16 22 15 11 16 24 28 29 29 28 21 18 17 15 18 21 22 22 21 22 24 22 22 23 22 22 24 26 31 35 41 50 50 42 43 50 55 60 62 55 50 48 48 51 52 58 65 64 64
15 14 13 13 13 13 14 14 14 14 13 11 8 5 4 5 7 7 5 4 4 7 6 5 4 4 12 19 15 13 13 11 14 13 9 11 14 16 18 21 24 18 13 20 27 30 31 26 21 18 16 16 15 18 20 20 22 22 21 22 21 20 23 22 23 25 26 30 34 41 53 54 45 45 50 53 59 64 60 53 47 47 51 53 57 63 67 70
16 14 14 13 13 13 13 14 15 15 14 12 8 6 5 4 5 4 5 4 4 4 3 3 3 5 12 18 15 12 11 10 13 13 10 16 19 20 25 26 24 22 20 24 28 31 29 20 14 16 16 17 17 18 19 18 19 20 19 20 20 20 21 21 22 26 28 30 33 43 57 52 42 44 49 53 56 60 64 60 50 45 48 51 54 63 71 71
18 16 15 13 13 13 13 14 15 15 15 13 9 9 8 6 5 5 5 4 3 4 4 4 2 4 13 18 16 13 14 12 14 15 13 18 21 20 27 30 27 26 23 21 23 25 22 13 12 16 17 18 18 18 18 17 17 16 16 16 17 19 18 16 19 26 33 33 34 49 58 48 39 41 46 50 49 51 58 60 56 51 48 49 52 61 70 69
23 20 17 15 14 13 13 14 14 15 16 13 10 10 8 6 6 6 6 4 4 5 7 9 4 3 13 18 16 16 17 15 16 17 15 18 23 22 25 30 29 26 21 17 19 21 17 13 14 16 18 19 19 18 16 17 17 15 15 14 15 17 17 18 21 27 39 42 39 46 49 41 37 37 43 49 46 45 51 56 59 58 54 51 52 57 61 63
27 24 20 17 14 14 14 13 14 16 15 14 12 9 6 6 7 6 6 10 12 9 8 14 12 7 11 16 15 17 19 18 18 18 16 17 22 22 23 27 25 22 17 14 18 20 15 13 13 14 17 19 19 18 16 16 17 16 15 14 15 16 14 18 22 26 35 38 36 36 35 36 35 31 36 44 47 48 49 51 56 61 62 58 55 56 54 57
27 27 24 21 16 14 14 14 15 15 15 15 11 8 7 5 6 5 12 29 31 18 12 15 17 11 9 12 13 15 19 17 16 18 16 16 20 20 21 23 20 16 15 14 16 16 14 13 13 12 13 15 15 16 16 15 16 15 14 13 14 14 13 14 17 20 24 26 28 29 28 32 32 28 33 40 48 52 48 47 52 58 65 61 59 59 52 56
27 28 26 24 20 15 14 14 15 16 16 15 9 7 6 5 7 7 24 48 39 21 17 15 15 15 12 12 11 11 15 16 15 16 13 15 19 19 19 19 17 14 13 15 14 12 11 11 11 12 12 13 13 14 15 14 14 13 12 14 13 13 13 13 12 14 17 23 30 31 29 32 31 28 33 42 48 48 43 44 48 53 58 58 60 59 52 58
26 27 26 26 23 17 14 14 15 16 16 14 9 6 5 7 10 11 29 46 31 17 21 18 14 16 16 16 14 11 13 15 17 17 13 14 18 19 19 17 16 14 13 14 14 12 12 10 10 11 11 12 13 13 14 13 13 13 12 13 13 13 12 11 12 12 15 21 25 25 26 32 35 31 34 45 47 42 40 46 49 51 55 56 59 58 53 57
25 26 25 26 25 20 16 14 15 16 16 14 8 5 7 7 11 25 40 39 25 21 22 19 17 15 15 17 16 15 14 14 17 17 14 14 17 19 20 19 16 14 14 15 14 13 12 11 11 10 10 11 10 11 12 11 11 12 13 14 13 13 12 11 12 10 15 20 17 15 19 28 38 36 33 38 39 36 38 46 49 50 53 55 56 57 55 54
24 25 24 24 26 23 17 14 14 15 16 13 7 6 8 6 12 36 50 33 21 24 22 20 21 17 17 18 17 16 14 13 15 17 16 15 17 20 20 21 19 16 15 15 14 14 13 12 12 10 10 10 10 10 10 10 11 10 12 13 13 14 11 11 12 9 16 22 15 14 19 25 33 33 29 30 33 33 34 39 44 45 47 52 56 59 57 52
23 24 24 23 25 24 18 16 14 15 16 10 7 7 6 11 18 26 35 28 21 23 21 21 22 19 21 20 17 17 15 14 14 16 17 15 16 19 19 20 20 18 17 16 15 14 14 13 13 11 10 10 10 10 10 10 10 10 12 11 13 14 11 17 24 19 18 19 15 18 22 25 29 27 26 29 31 33 32 33 39 41 42 49 56 57 55 53
20 22 23 23 25 25 19 16 14 15 16 11 9 6 5 21 27 14 15 22 22 24 24 22 22 21 22 20 17 17 15 16 15 15 17 16 16 17 17 19 19 18 17 15 15 15 14 14 13 12 11 10 10 10 10 11 10 11 13 11 13 16 17 27 34 27 21 17 16 20 22 25 29 28 28 29 28 30 31 29 34 40 42 47 53 52 52 54
18 19 22 24 25 25 20 16 15 15 16 12 9 7 10 23 24 13 16 23 24 27 24 22 23 22 20 19 17 16 15 17 17 15 16 17 18 18 18 19 19 19 17 15 15 15 15 15 13 12 12 10 10 10 10 12 11 11 12 11 12 13 16 24 27 22 19 15 14 20 24 26 28 28 29 29 28 30 29 28 32 40 43 46 52 54 55 55
17 17 21 25 27 26 21 16 15 14 15 14 9 8 11 14 12 14 24 29 28 26 20 20 23 22 20 19 17 16 16 16 16 15 14 16 18 18 19 19 19 20 19 16 15 15 15 15 12 11 11 10 10 11 10 11 11 12 12 11 11 11 11 14 15 12 13 16 20 24 28 26 25 29 31 30 31 30 29 29 32 39 41 42 48 52 55 54
17 18 22 26 28 27 21 16 15 15 15 15 11 8 8 7 9 16 25 29 28 24 21 20 21 21 22 19 17 17 16 15 14 13 12 13 15 17 18 18 18 20 19 18 17 15 15 14 11 10 11 10 10 10 10 10 10 11 12 11 11 11 10 10 11 10 11 19 27 31 32 30 31 37 34 31 33 32 30 32 35 39 37 37 43 48 53 54
17 21 24 27 28 27 22 17 15 15 15 15 13 11 8 7 9 13 19 24 24 22 23 22 19 19 19 18 16 16 16 15 14 12 12 13 15 16 16 16 17 18 18 18 17 16 15 13 12 11 11 10 10 10 10 9 9 10 11 11 10 9 10 10 11 15 18 22 27 31 33 32 35 39 34 30 32 31 31 33 38 40 36 35 42 47 54 59
21 25 27 28 28 26 22 17 15 15 16 15 14 13 11 9 8 8 10 15 19 22 25 23 20 17 16 16 16 15 15 16 15 13 12 13 15 15 15 15 16 16 16 17 16 16 16 14 12 11 11 10 9 9 10 9 9 8 9 10 9 7 9 10 12 18 23 27 29 32 35 33 29 28 27 27 30 29 30 33 39 43 39 39 45 50 57 62
24 27 28 28 26 23 20 18 16 15 16 16 14 13 12 11 10 8 7 10 18 25 26 24 21 19 16 16 16 16 16 14 13 13 12 13 13 13 13 14 14 15 15 16 16 15 15 15 12 11 10 9 8 9 10 10 9 8 8 8 8 7 7 9 11 14 21 32 36 32 33 32 24 21 23 24 26 27 28 33 41 46 44 43 47 52 57 58
28 30 29 28 25 22 19 17 18 17 16 16 15 13 13 12 11 10 9 15 23 27 27 24 21 20 17 15 16 16 16 16 15 13 12 13 12 12 12 12 13 14 14 14 15 14 15 15 13 11 10 9 8 8 9 9 8 8 8 8 8 7 7 9 13 12 16 31 41 39 37 29 20 22 23 21 24 27 29 34 41 44 44 44 48 53 57 56
33 36 34 30 30 32 28 20 18 18 17 15 15 15 14 14 13 12 12 20 28 28 27 25 20 19 18 16 16 14 15 21 24 22 17 14 12 12 12 12 12 13 14 14 14 15 15 14 13 12 11 10 9 8 8 8 8 7 7 7 7 7 6 11 18 16 12 20 29 36 39 28 19 23 23 22 27 27 29 35 39 40 41 42 45 50 56 56
42 44 39 35 36 39 38 31 24 23 20 18 17 16 15 15 15 15 18 25 30 28 27 27 24 21 18 15 14 13 15 22 28 29 25 20 17 17 17 17 14 12 13 14 13 13 13 13 14 12 11 10 9 8 8 7 7 7 7 7 6 7 5 9 18 17 14 17 17 24 35 27 20 24 24 26 29 26 28 33 35 36 39 42 44 47 53 56
51 52 43 43 44 41 44 46 41 31 23 19 17 17 19 21 20 21 27 34 35 31 29 28 26 24 21 15 13 16 20 24 28 30 28 25 22 21 22 22 18 13 12 12 12 12 13 13 13 12 11 10 8 8 7 7 7 7 7 7 6 7 5 6 11 12 12 16 17 28 41 32 22 27 27 26 27 25 27 33 35 35 36 41 45 46 50 53
52 60 54 55 59 54 51 53 51 42 31 26 27 29 33 38 36 35 39 42 40 36 32 29 25 23 22 18 15 18 21 25 29 30 30 29 24 22 22 20 17 15 13 11 11 11 12 14 13 11 11 11 11 10 8 7 7 6 7 8 6 6 6 5 7 9 10 11 15 29 40 31 24 29 27 24 25 25 29 34 38 37 34 37 41 44 48 51
42 57 62 66 70 64 55 53 56 51 42 40 43 43 43 43 41 42 46 47 45 41 34 30 28 24 22 19 16 19 22 26 30 30 31 31 26 22 21 18 16 15 12 10 10 10 11 12 12 11 12 14 14 13 11 8 7 7 7 7 6 6 6 6 6 8 8 8 10 18 25 26 28 29 25 24 25 28 30 32 36 38 35 33 33 36 43 47
29 43 57 68 71 63 53 53 57 54 47 45 45 43 42 40 40 43 47 47 46 41 35 33 31 27 25 26 26 28 30 31 33 32 32 33 28 22 22 22 20 16 13 10 9 10 11 10 10 10 10 11 10 9 11 10 8 8 8 8 7 7 6 6 6 7 7 7 9 12 15 23 29 28 24 25 25 26 27 26 26 29 30 28 25 26 33 40
24 34 48 61 65 59 52 52 52 49 47 46 44 46 47 45 43 44 45 46 44 40 37 37 36 33 32 33 35 38 37 34 34 34 34 35 32 25 23 24 22 16 13 13 10 10 11 10 10 10 9 9 9 8 9 9 8 9 10 9 9 7 7 6 6 6 6 8 10 13 16 20 24 23 22 23 22 22 24 22 20 23 25 26 24 23 26 31
21 32 45 55 58 55 52 50 47 43 44 47 52 57 56 51 48 45 43 43 43 40 38 39 41 42 41 38 38 41 41 38 38 39 37 37 36 31 26 24 22 15 13 14 12 10 11 11 10 11 10 10 9 9 9 9 9 9 10 10 10 10 8 6 6 6 6 8 11 15 16 16 18 19 19 20 19 19 22 22 21 23 25 27 27 25 24 25
16 29 44 52 55 56 52 50 51 48 48 53 57 61 59 53 50 48 44 40 39 39 40 42 43 44 45 42 40 43 47 47 47 47 44 42 41 36 29 24 20 16 14 14 14 12 12 13 13 13 12 12 11 11 11 10 10 10 10 10 10 11 10 7 6 6 7 9 10 11 15 16 16 17 18 19 20 21 23 23 21 21 23 26 29 29 28 28
12 23 39 48 53 57 55 54 58 57 55 56 57 60 60 54 50 50 45 40 39 39 42 45 47 48 48 44 40 45 53 54 54 53 51 48 45 39 32 26 22 20 17 15 16 15 12 14 17 15 13 13 13 14 14 13 13 13 11 11 10 10 10 9 8 7 8 10 9 11 17 20 19 20 22 23 23 22 21 20 20 21 23 25 29 31 31 32
9 15 30 42 51 58 59 60 64 62 57 55 54 59 62 58 55 54 50 46 43 43 45 46 47 50 51 46 41 45 52 54 54 54 54 53 48 42 36 30 24 22 21 18 17 16 13 15 18 15 14 15 16 17 15 13 13 13 11 11 11 9 9 9 9 9 9 10 13 16 19 21 22 25 25 24 23 21 20 20 19 20 23 26 27 29 32 35
10 10 17 30 45 58 63 63 62 61 59 54 54 61 67 66 63 61 58 55 51 51 54 53 48 47 49 49 47 48 51 53 54 53 53 53 50 46 42 34 25 22 22 21 19 16 16 19 20 17 17 18 20 20 15 13 14 14 13 14 14 12 10 9 8 10 10 10 14 16 16 19 22 25 26 25 22 20 20 20 20 21 24 25 26 30 34 38
Wind_Speed
9 9 8 8 7 8 8 9 9 9 9 8 8 8 8 8 7 6 6 5 5 5 6 8 10 13 15 16 16 15 16 16 17 17 15 13 14 14 11 9 7 7 7 6 5 3 3 2 9 14 15 16 16 14 13 14 15 14 10 8 12 14 13 11 11 11 12 13 12 12 11 10 11 14 14 14 13 12 12 12 12 10 10 12 13 14 15 16
10 10 10 10 9 9 8 9 9 10 10 9 9 9 9 9 8 8 6 6 6 6 6 7 8 10 13 15 16 16 15 15 15 15 14 14 17 15 12 11 8 7 7 4 2 3 5 5 4 10 10 10 13 12 11 12 12 11 8 7 12 14 14 11 10 10 11 13 13 13 12 9 8 12 12 11 11 10 11 11 12 10 10 13 14 14 14 14
11 11 11 11 11 11 10 9 9 10 10 10 10 10 10 10 9 9 8 7 7 6 6 6 7 8 11 13 15 15 15 14 13 13 14 17 17 15 13 11 9 8 8 4 4 5 6 6 6 9 9 8 8 7 7 10 10 7 6 8 13 14 15 12 9 9 10 11 13 13 12 10 8 10 9 8 7 8 11 10 10 9 8 11 13 13 14 14
11 11 11 11 12 12 12 11 10 10 11 11 11 10 10 11 10 10 10 9 8 7 7 7 7 8 9 11 13 14 14 14 13 14 16 18 17 16 14 12 10 9 9 6 9 13 13 9 8 8 8 7 5 3 4 8 10 5 7 9 12 13 13 12 8 7 8 10 12 13 13 11 9 8 7 6 5 6 10 10 9 8 6 6 7 11 14 14
11 11 11 11 11 12 12 12 12 11 12 12 11 11 11 11 11 11 11 11 10 9 8 8 7 7 8 9 11 13 13 14 14 14 17 19 18 17 15 14 11 10 10 8 9 11 11 10 9 7 7 7 4 3 5 6 7 3 8 9 11 12 11 10 8 8 9 9 9 11 12 11 9 9 6 4 3 4 7 9 10 11 10 6 5 7 12 15
12 12 11 11 11 12 12 12 12 12 12 12 12 12 12 11 11 12 12 12 11 10 10 9 8 7 7 8 9 12 13 12 12 14 18 20 20 18 17 15 13 12 12 9 9 10 8 9 9 7 5 4 4 6 4 5 5 3 7 7 8 10 9 10 9 8 9 9 8 9 10 10 9 9 8 6 4 3 4 7 8 10 12 11 8 7 9 12
13 13 12 12 12 12 12 12 12 12 12 13 13 13 13 12 11 12 13 13 12 12 11 10 9 7 7 8 8 11 14 13 10 11 17 21 21 20 18 16 15 12 13 10 9 8 7 7 8 7 5 5 5 7 4 3 4 5 4 3 7 10 10 12 11 9 9 8 7 7 8 9 9 8 7 7 6 5 4 5 6 7 11 14 13 10 8 10
14 13 13 13 12 12 12 12 12 12 12 12 13 14 13 13 12 12 12 13 13 13 13 12 10 8 7 7 8 9 12 13 12 8 13 21 21 21 20 18 16 13 13 12 9 8 6 8 8 8 11 11 1 7 5 2 3 3 2 3 8 9 10 12 12 11 9 5 4 7 8 9 8 8 8 8 6 6 6 4 5 6 8 12 15 13 12 11
13 14 14 14 13 13 13 13 12 12 12 12 13 14 14 13 13 13 12 13 14 14 14 13 12 10 8 7 7 7 8 13 15 11 10 18 21 21 20 19 17 14 14 12 11 9 7 9 8 9 10 9 4 4 4 4 4 2 1 5 8 9 10 12 11 10 8 3 4 6 7 8 7 7 9 9 7 7 7 7 6 6 7 10 13 14 14 14
13 13 13 14 14 13 13 14 13 12 12 12 12 13 14 14 13 14 13 13 14 14 14 14 13 11 9 8 6 5 8 13 17 16 12 15 20 22 21 20 18 16 15 14 12 9 8 8 7 8 10 7 3 3 2 4 3 1 3 5 8 10 11 13 10 9 7 2 5 4 5 7 6 5 9 9 7 7 8 7 6 6 7 8 9 11 14 15
12 12 12 13 14 13 14 14 14 13 13 12 12 12 13 13 13 14 14 14 14 14 14 14 13 12 10 8 5 5 9 13 16 18 17 15 18 22 22 21 20 17 16 15 13 9 10 6 5 6 8 6 3 1 2 3 5 2 3 4 7 10 12 12 10 8 6 1 5 6 5 7 6 5 7 8 7 7 7 7 6 7 7 6 6 7 10 14
11 11 11 12 13 13 14 14 15 14 13 12 12 12 12 12 13 13 14 14 14 15 15 14 13 12 11 8 6 9 11 14 17 18 19 17 17 20 23 22 21 18 16 15 13 9 10 7 3 4 5 4 3 2 3 3 3 3 3 3 5 8 11 12 10 8 6 2 3 5 4 6 6 5 5 5 6 6 6 7 7 6 6 5 5 4 6 10
12 12 11 12 12 13 13 14 15 14 14 13 12 12 11 11 12 12 13 14 14 15 15 15 14 12 11 7 8 11 12 14 17 17 19 19 17 19 22 23 21 20 17 15 14 11 11 11 6 3 4 7 4 2 5 3 8 9 7 5 3 7 9 11 10 6 5 3 3 4 2 3 6 5 4 4 4 4 5 7 7 6 5 4 3 3 3 5
13 12 12 12 12 13 13 13 14 14 14 13 12 12 11 10 11 12 12 13 14 15 15 15 14 12 10 8 9 11 12 13 14 15 16 18 18 18 21 23 22 21 19 16 15 13 12 14 9 5 6 7 6 6 5 6 10 12 12 9 6 7 8 10 8 5 3 4 5 4 3 1 6 5 5 5 5 3 2 5 6 5 4 4 3 2 2 2
14 13 13 12 12 13 13 13 13 13 14 14 13 13 11 10 10 11 12 12 13 14 15 15 14 12 9 8 9 9 10 10 10 11 11 14 18 17 18 21 22 21 20 17 16 14 13 16 14 11 10 9 8 7 7 9 10 13 13 11 10 11 9 10 8 7 6 5 6 5 2 0 3 3 4 6 5 2 1 3 5 5 4 3 3 2 2 1
15 14 13 13 13 13 13 13 12 12 14 14 14 13 11 10 10 11 12 12 13 14 15 14 13 12 8 6 7 6 5 5 8 10 8 10 15 16 16 19 20 21 21 19 17 14 13 16 16 14 13 11 8 6 9 10 10 14 15 12 14 14 12 11 10 9 10 9 6 4 2 1 1 2 1 2 3 3 1 1 4 6 5 3 3 2 1 1
15 14 14 13 13 13 14 14 12 12 13 13 13 13 12 12 11 11 12 13 14 14 15 14 13 12 7 5 6 4 2 1 5 10 9 9 14 16 16 19 21 21 21 20 18 16 15 16 15 13 12 12 10 7 10 12 10 12 12 11 15 15 14 15 14 11 14 14 8 4 1 3 3 3 3 2 2 2 1 2 1 5 6 3 3 1 1 1
16 15 14 14 13 13 14 14 13 12 12 13 12 12 13 13 12 12 13 14 13 14 14 13 13 10 7 8 7 6 5 4 3 7 10 11 15 18 17 18 19 20 22 22 21 18 17 16 15 13 11 13 12 9 12 14 11 11 8 12 16 16 17 17 14 12 14 16 13 8 1 5 4 3 4 4 2 1 1 3 2 3 5 3 2 0 1 1
17 16 15 14 13 13 14 15 14 12 12 13 12 12 12 12 12 13 13 13 12 13 13 12 13 9 8 11 10 8 8 7 4 3 7 11 16 19 19 17 17 20 23 23 22 21 19 17 16 16 14 15 15 13 14 14 11 14 13 14 18 17 16 14 9 9 13 15 14 10 3 4 4 2 3 4 2 1 2 3 3 3 4 3 1 1 1 2
17 16 15 15 14 13 13 14 14 13 12 11 12 12 11 11 12 14 15 12 12 14 14 14 14 11 11 12 11 9 8 6 4 1 4 9 15 19 20 17 15 18 22 23 23 21 20 19 18 20 16 14 16 16 15 13 13 18 19 18 18 16 13 10 5 9 12 14 12 8 6 2 2 1 3 5 3 2 3 4 5 5 4 4 2 0 1 1
18 17 16 15 14 13 12 14 13 13 13 12 12 11 11 11 11 15 16 11 11 15 14 15 16 14 14 12 11 11 9 6 2 3 3 8 14 19 20 18 16 19 21 21 20 18 19 21 21 21 16 13 15 16 15 15 17 20 22 23 21 17 13 10 6 11 15 14 10 9 10 6 1 2 2 4 4 2 3 4 5 6 7 6 4 3 1 2
19 18 17 15 15 13 12 13 13 13 13 13 12 12 12 11 11 14 15 8 8 13 13 13 15 13 15 14 12 12 11 8 4 3 6 10 15 19 20 19 18 18 19 19 18 16 18 23 24 19 14 12 14 15 14 15 19 23 23 24 23 18 13 10 9 13 17 15 11 11 13 9 3 3 2 3 3 2 2 3 5 7 8 7 7 5 3 3
20 18 17 16 15 13 12 12 13 12 13 13 12 12 13 13 12 12 15 13 6 10 12 11 11 9 16 17 14 13 12 10 9 8 11 11 14 18 20 21 19 17 17 20 21 19 20 22 20 17 13 12 13 12 11 13 17 22 23 24 24 18 12 10 14 18 19 15 11 14 14 9 6 5 4 4 3 3 3 4 5 7 8 8 8 6 4 2
20 18 17 16 15 13 11 12 13 12 12 12 10 10 11 11 12 11 14 16 8 6 8 7 8 10 17 17 15 13 10 9 10 10 12 12 15 18 19 18 17 16 16 19 21 23 24 20 14 14 14 13 14 12 12 15 15 15 18 21 23 20 14 8 9 18 20 15 13 17 16 12 9 5 5 5 3 3 3 4 5 7 9 9 8 7 5 3
19 18 17 16 15 13 11 12 13 11 11 11 9 8 7 5 9 11 12 16 10 5 7 5 5 8 17 19 16 13 9 10 11 10 12 12 15 19 18 15 16 16 15 16 19 20 23 20 16 17 16 15 18 17 15 18 19 16 13 15 17 17 14 6 4 14 22 21 20 20 12 8 9 7 6 6 3 2 1 2 4 6 9 10 9 8 6 4
19 18 16 16 15 12 10 12 13 11 10 11 9 8 6 3 6 9 11 13 8 2 5 4 2 6 18 22 16 12 10 11 11 12 12 10 14 18 18 17 17 16 11 12 17 19 18 16 17 19 20 19 21 24 21 19 26 26 15 11 11 12 13 9 8 17 22 20 19 19 9 5 8 6 6 6 4 3 2 3 4 5 7 10 10 9 6 4
19 18 16 15 15 12 9 10 12 11 10 10 9 7 6 5 5 7 8 9 5 3 3 5 6 5 14 20 16 12 8 6 10 14 14 12 13 16 18 20 19 15 11 11 17 20 17 14 15 17 18 21 22 25 24 19 24 27 16 9 9 10 12 9 9 11 13 11 12 17 13 7 8 6 5 6 5 4 3 2 3 4 6 9 10 10 8 5
19 18 16 14 15 12 8 8 11 11 10 9 8 7 6 5 4 5 3 3 2 4 4 6 7 5 11 16 16 14 6 2 7 12 13 13 14 15 17 20 19 14 13 15 19 19 14 15 16 14 15 19 20 21 20 17 21 23 18 16 14 12 8 5 9 5 6 9 13 17 16 8 6 6 5 7 7 5 4 2 1 3 5 7 9 9 8 6
17 17 16 14 15 13 8 8 10 10 9 9 7 7 6 4 2 2 2 2 1 3 3 4 5 5 10 14 13 12 7 4 4 7 12 13 15 17 15 16 19 16 14 18 21 18 15 16 16 15 18 18 15 16 16 17 20 17 15 19 16 10 7 5 10 8 6 7 11 16 17 8 4 7 7 8 9 5 2 4 3 2 4 7 9 9 7 8
15 16 16 13 14 12 9 10 10 9 9 8 8 7 6 4 2 1 1 1 2 2 2 4 6 5 7 12 14 12 9 8 5 5 13 14 13 17 15 13 16 19 19 20 21 20 18 17 17 18 21 18 15 15 16 18 19 13 10 15 13 9 9 7 8 9 5 5 13 14 16 12 5 6 8 6 5 1 0 4 4 3 6 8 9 9 9 9
14 16 16 14 13 11 10 12 11 9 9 8 7 8 7 5 5 3 1 3 2 2 5 6 9 10 7 5 11 13 11 12 10 8 13 17 16 18 18 16 17 20 22 22 23 22 20 18 19 21 20 18 18 17 17 19 18 14 12 14 12 9 9 7 3 4 2 5 14 11 12 13 6 4 5 2 0 3 3 2 3 3 5 8 10 11 11 9
14 15 15 14 12 9 10 13 12 10 9 8 8 10 9 6 8 8 5 5 2 1 5 8 10 13 8 3 6 11 10 11 14 12 12 17 21 20 18 17 18 18 19 22 23 22 22 21 20 21 20 19 19 16 14 15 16 16 15 14 9 3 5 4 2 1 5 9 10 5 11 8 3 3 2 3 3 3 4 3 3 4 5 7 11 12 12 10
14 14 14 14 10 8 11 14 13 11 9 9 9 11 10 5 7 11 10 5 4 7 6 7 10 13 10 5 4 9 12 9 11 14 13 15 19 20 17 15 17 18 18 18 19 18 19 20 20 19 19 20 19 16 12 10 13 16 16 14 9 2 2 2 3 2 5 10 7 4 8 7 5 4 3 4 4 3 3 3 1 3 3 5 12 12 11 9
15 14 12 12 9 9 13 16 15 13 10 10 12 12 12 9 6 7 8 3 6 9 8 9 10 14 12 5 2 5 11 10 9 13 14 14 18 22 20 15 15 18 20 19 17 16 13 14 17 16 17 20 20 19 15 11 11 13 12 11 11 8 5 4 4 3 3 5 2 1 3 7 8 5 4 3 2 2 3 2 1 2 2 5 11 12 11 10
14 13 10 9 9 10 15 17 16 13 12 12 13 14 16 16 10 3 2 2 4 8 9 11 6 19 18 9 4 4 6 7 10 12 13 15 19 22 22 18 15 16 20 20 17 16 15 15 15 14 14 18 19 19 19 16 14 14 13 11 12 14 12 9 8 8 6 5 1 5 4 7 9 8 7 3 1 2 1 2 1 1 1 3 7 11 12 11
12 11 8 7 9 12 16 17 15 14 14 13 15 19 21 19 11 4 2 2 2 11 17 13 4 21 22 13 9 10 9 7 10 13 15 17 19 21 21 19 17 16 18 20 17 14 14 18 18 14 13 17 21 19 19 19 15 14 18 19 17 14 15 13 9 8 7 3 2 8 10 10 11 11 11 6 3 6 3 0 0 0 1 1 4 8 11 10
10 9 7 6 10 14 17 17 15 15 15 15 18 20 21 18 14 11 7 3 5 12 21 17 1 13 17 15 12 13 14 12 13 16 16 17 20 23 23 20 19 17 15 17 20 17 14 18 20 18 16 17 21 23 23 20 14 12 20 24 19 12 13 14 7 3 3 1 4 11 14 16 13 9 11 11 7 8 6 2 1 2 1 0 3 7 10 11
7 5 4 6 9 11 13 15 15 15 16 18 20 19 19 19 17 15 12 9 9 12 19 19 9 4 4 7 6 9 16 17 16 17 16 17 19 22 24 23 20 19 16 15 19 20 18 20 21 19 18 15 16 23 26 24 19 16 17 18 14 8 8 11 7 2 1 1 3 8 12 15 14 9 10 12 9 8 7 4 2 3 1 0 4 8 10 12
2 3 4 5 7 8 11 13 14 16 17 19 20 18 17 17 15 14 12 10 10 13 16 15 13 13 9 5 7 9 12 19 18 18 18 16 17 18 19 22 21 20 19 17 18 19 19 20 20 17 13 8 10 20 27 27 25 21 16 15 14 11 9 10 9 7 4 2 3 3 4 10 13 11 8 8 8 7 5 3 3 3 1 1 4 7 10 11
4 6 5 6 7 7 10 12 13 16 19 20 19 17 15 14 12 10 9 9 9 12 15 17 17 18 16 12 11 12 9 13 15 16 17 15 15 15 14 18 22 21 19 19 18 18 19 21 23 21 13 8 8 19 29 29 28 24 19 18 16 13 12 10 10 11 5 2 4 4 3 8 11 9 5 4 4 3 0 1 4 4 2 2 4 7 8 10
8 8 8 9 11 9 8 12 14 17 19 19 18 16 14 14 12 8 6 5 9 13 15 18 19 19 18 16 14 13 10 7 7 10 13 14 14 14 11 12 20 22 21 23 23 21 21 22 25 26 22 17 13 17 28 29 24 20 16 14 12 13 14 9 6 11 9 4 5 7 4 6 10 10 6 4 4 4 4 4 5 4 4 4 5 7 8 9
12 11 10 11 12 12 9 9 12 16 18 17 15 14 13 13 11 7 5 3 11 14 13 15 16 14 13 13 13 13 12 11 11 11 9 9 8 8 9 11 16 23 24 24 23 20 20 21 23 24 21 18 14 12 24 29 23 17 12 10 10 12 15 12 7 9 10 4 4 7 5 8 13 12 7 6 7 6 4 4 4 4 5 5 6 8 9 9
14 12 11 11 10 9 9 8 8 11 14 13 12 11 9 10 9 6 6 11 16 16 15 15 13 11 11 13 12 11 11 11 12 12 11 11 8 4 5 11 11 20 26 24 22 20 21 22 21 18 17 18 16 12 19 27 24 21 17 13 13 13 15 16 12 10 8 3 8 9 3 9 16 13 9 8 8 7 5 4 4 4 6 6 6 8 9 9
17 15 14 13 9 8 7 6 4 6 8 8 8 8 8 11 11 10 14 17 16 18 19 16 12 9 11 11 11 13 14 12 12 13 13 14 13 5 3 4 6 11 21 24 21 21 23 24 21 13 8 12 13 11 14 23 26 24 18 14 15 16 16 17 16 14 11 7 11 13 5 12 18 14 11 10 9 9 6 5 6 5 5 6 6 6 7 8
19 18 18 17 13 10 7 4 3 5 6 8 10 13 13 14 12 12 15 16 16 19 19 17 14 11 11 12 13 14 15 12 11 13 14 15 14 6 2 4 7 7 17 21 16 18 23 23 21 15 6 5 8 6 4 14 22 23 18 14 16 18 18 18 17 14 12 11 11 10 8 16 22 16 12 12 11 12 8 7 8 5 4 4 5 4 6 7
18 21 21 20 19 15 9 6 8 10 9 11 14 16 16 16 14 13 15 16 18 20 18 17 17 14 12 11 8 6 8 8 8 12 15 16 15 9 2 4 8 5 13 17 13 17 24 23 20 17 14 13 17 13 3 3 11 12 11 12 15 19 19 20 20 18 17 15 11 7 7 17 26 21 16 16 15 13 9 7 6 5 5 4 3 2 4 5
18 22 23 23 20 17 14 12 14 15 12 11 13 14 14 15 16 15 15 16 19 20 17 15 15 13 11 8 5 1 3 7 8 11 15 16 17 15 6 6 6 4 9 12 17 16 15 16 15 15 16 16 18 17 11 10 14 12 10 13 13 15 20 21 22 24 25 19 12 11 11 15 23 23 19 19 15 11 9 6 3 3 4 4 3 2 2 3
17 21 25 25 21 18 18 17 17 17 13 9 10 12 12 14 16 16 16 16 17 17 16 14 11 10 8 7 7 4 1 5 9 12 14 15 18 19 13 7 4 9 10 11 18 17 9 7 8 9 11 12 12 13 12 12 15 13 13 17 17 15 17 22 23 22 23 21 15 13 13 14 19 22 19 17 11 6 6 5 4 4 5 4 3 2 1 3
18 20 22 25 22 18 18 18 14 13 11 9 8 9 12 14 15 17 17 17 17 16 15 14 13 11 8 7 8 4 3 4 7 9 9 10 14 15 12 9 6 10 11 9 10 12 10 5 4 6 9 10 8 9 11 10 11 13 16 19 18 17 17 19 24 20 20 25 20 13 12 15 17 17 16 14 10 7 6 6 6 5 4 4 3 3 3 4
16 18 19 23 23 19 17 16 11 8 7 7 5 6 10 14 16 17 18 18 18 17 17 14 11 10 8 8 10 6 4 5 4 6 8 7 9 7 5 10 9 6 9 7 6 9 13 7 1 3 7 8 7 9 7 4 6 10 14 16 16 17 18 15 15 14 16 22 16 9 15 19 17 15 16 16 13 10 8 7 6 5 5 4 3 3 4 5
14 17 19 21 22 20 18 16 12 8 7 5 3 3 7 12 14 15 16 17 17 18 18 16 12 9 7 7 11 11 8 6 6 4 7 8 7 4 2 10 11 5 4 5 7 9 13 9 4 2 5 7 9 11 5 2 5 7 9 12 14 17 18 12 7 7 12 15 12 16 20 22 22 22 21 18 14 11 8 6 5 5 6 5 3 3 5 6
14 16 19 20 22 21 19 16 13 12 11 6 2 1 3 7 12 13 12 13 15 15 15 15 13 11 10 9 12 16 17 14 12 9 5 1 6 6 6 9 11 9 5 3 7 9 9 4 1 2 5 9 12 12 6 2 4 5 9 14 15 15 14 12 11 10 14 16 16 17 16 20 25 26 24 20 14 10 7 5 4 4 6 7 4 4 6 6
Wind_Direction
311 311 309 306 303 299 297 296 295 293 292 293 294 297 299 299 299 301 300 297 289 272 262 255 249 243 242 243 242 237 231 226 219 211 195 194 206 198 192 192 184 163 149 139 149 200 254 342 47 56 48 37 27 27 37 38 32 22 31 32 22 25 33 37 40 55 62 65 72 80 111 151 145 139 147 149 147 146 137 133 135 136 153 167 168 167 167 169
308 307 307 305 303 298 295 292 292 291 289 287 286 287 290 292 292 292 292 292 289 282 274 263 257 248 243 241 240 238 232 229 220 200 183 198 206 194 190 193 189 171 159 149 178 253 234 217 89 70 60 43 19 21 39 37 36 28 22 15 13 12 16 26 31 51 66 66 74 78 98 129 149 150 151 154 157 160 156 147 140 132 145 165 169 171 177 181
311 309 307 305 302 299 295 291 288 288 287 286 283 281 281 284 285 286 286 286 285 284 280 270 265 256 249 242 238 237 232 230 217 195 191 204 204 193 192 190 191 177 161 138 86 89 136 155 109 80 59 51 20 27 61 38 42 45 10 356 9 10 11 23 29 46 68 71 77 79 87 104 132 157 164 168 175 176 176 171 159 145 144 161 169 176 186 193
318 316 312 308 305 300 297 293 289 285 285 284 282 280 277 277 279 281 281 282 281 279 278 274 271 264 258 247 240 236 231 229 219 203 199 204 201 194 193 191 193 180 162 133 101 99 115 123 99 79 43 37 24 57 109 37 39 42 2 352 4 5 6 22 30 38 62 71 78 81 81 89 104 133 162 177 192 193 191 198 204 197 175 171 180 182 186 194
325 323 321 317 311 306 301 296 292 286 284 282 281 280 276 274 274 276 277 278 278 275 275 273 273 269 264 254 242 235 229 228 220 204 196 201 201 194 190 193 196 182 165 145 127 117 118 124 106 93 56 44 52 115 145 46 44 10 349 352 357 359 1 22 34 35 47 58 70 80 83 86 90 99 116 135 158 184 190 200 216 221 211 206 209 194 188 193
326 326 325 323 319 314 309 303 297 290 285 282 280 278 275 273 270 272 273 274 276 275 273 270 272 270 267 258 244 234 224 221 214 202 195 198 201 197 192 193 195 185 172 160 146 135 123 121 96 94 89 82 150 146 127 51 43 316 337 348 351 3 12 24 32 32 34 39 58 80 90 89 81 81 87 88 99 116 159 191 203 216 215 216 220 211 201 203
324 324 325 324 323 320 315 311 305 298 291 284 280 278 274 272 268 269 269 271 273 273 274 271 270 267 266 261 247 235 223 218 213 202 196 197 200 200 197 195 194 186 175 172 161 149 131 113 82 69 43 8 201 168 123 62 26 345 358 357 342 2 16 23 26 28 25 24 49 77 91 93 81 71 74 75 80 92 116 170 182 195 206 214 221 223 218 214
321 321 322 322 322 321 318 315 311 305 299 290 283 279 275 272 268 266 265 268 270 272 274 272 272 268 263 261 252 243 227 219 218 204 193 197 201 201 200 198 197 189 178 179 177 161 124 98 69 43 29 20 94 165 166 148 47 18 21 338 331 352 7 14 20 21 16 16 56 71 80 91 85 71 68 75 96 104 101 116 146 171 185 198 211 221 225 221
319 320 320 320 320 320 317 315 313 310 307 300 288 281 278 274 269 265 262 264 267 269 272 273 274 271 266 263 258 253 228 216 217 211 193 195 200 203 202 200 200 193 182 185 183 163 121 100 69 32 32 40 90 131 181 179 87 89 284 317 321 335 349 360 13 16 6 19 81 70 79 87 78 73 77 88 113 109 96 90 104 136 158 178 196 208 216 218
320 321 321 320 319 319 317 314 312 311 311 308 298 285 279 276 271 267 262 260 263 265 269 271 273 273 271 266 266 258 224 215 214 209 200 195 198 202 203 201 201 197 186 187 187 166 134 111 73 49 37 40 112 87 200 212 13 0 245 300 316 319 331 347 5 14 3 34 91 82 87 91 80 69 79 94 115 107 99 95 96 117 134 155 181 196 205 212
320 321 321 321 319 319 318 314 312 311 312 311 305 293 283 278 273 269 264 260 260 262 265 268 270 271 271 271 271 243 220 219 218 210 203 196 197 200 202 202 201 200 193 188 189 169 145 125 64 76 35 20 156 19 253 237 345 304 220 279 299 311 325 338 348 4 0 24 103 99 89 90 91 65 70 90 109 111 109 107 107 116 120 133 156 184 202 210
317 318 320 320 319 320 319 317 315 314 314 311 307 299 288 280 274 271 267 262 259 259 261 264 267 268 268 272 263 236 220 217 220 217 207 198 194 198 201 202 201 200 199 193 187 175 169 175 131 96 357 311 201 316 219 196 302 245 224 267 280 301 313 325 323 335 345 283 136 113 98 84 82 65 64 80 96 109 123 122 116 115 116 124 138 164 193 209
315 316 316 316 317 318 319 318 318 319 316 310 305 301 294 282 274 271 268 265 261 259 259 260 262 265 267 269 259 246 234 222 221 222 215 203 193 196 201 201 200 199 200 199 187 179 191 193 167 129 290 258 217 205 191 249 294 269 264 258 280 291 292 319 315 308 330 273 200 148 167 85 73 64 60 63 77 98 133 139 127 119 116 116 133 155 167 195
312 313 313 314 315 314 316 317 319 322 318 310 302 299 296 283 272 268 267 265 262 260 258 258 259 262 265 263 257 253 249 240 230 224 220 212 198 195 201 200 201 200 198 200 191 184 200 209 204 193 226 230 203 191 210 301 292 262 256 254 288 309 299 318 310 274 287 251 205 179 204 111 70 63 46 49 70 85 146 146 137 138 125 115 120 135 148 160
308 310 311 311 313 312 312 314 317 322 320 313 304 300 300 286 271 266 266 264 262 260 257 256 257 258 260 257 258 263 266 269 258 239 227 217 202 195 200 200 201 202 201 201 194 191 207 221 220 202 195 195 184 203 249 296 279 248 247 256 288 312 310 306 289 254 256 246 209 189 196 196 64 67 39 35 61 82 184 149 143 154 141 116 114 110 119 139
305 306 308 308 312 311 310 312 314 320 322 316 309 304 299 283 271 265 263 262 259 257 255 253 254 254 254 251 249 260 275 284 273 257 240 213 197 192 195 196 197 200 202 203 200 196 205 219 221 207 200 200 202 241 277 290 275 246 247 273 298 301 293 286 278 252 242 246 226 198 176 100 75 112 132 0 32 50 343 213 161 160 158 131 121 112 75 29
303 303 305 306 309 310 309 309 312 321 322 316 312 306 297 286 278 270 263 261 258 257 255 252 252 251 243 229 214 209 196 191 254 256 249 215 190 187 190 189 192 196 198 202 204 198 198 212 219 216 216 221 227 257 278 275 264 242 247 298 316 304 289 278 269 246 230 237 242 227 154 88 92 119 165 230 320 14 344 300 237 174 179 164 139 136 24 21
301 302 302 304 307 308 308 307 311 322 322 316 313 307 298 294 288 278 270 267 265 263 260 253 249 244 220 201 182 164 153 137 204 254 252 223 193 188 188 184 187 193 195 200 206 203 199 209 220 226 229 224 219 231 251 252 253 248 268 323 322 308 301 291 273 249 230 229 236 240 223 82 113 144 157 195 254 343 295 302 306 201 202 204 164 180 7 47
299 300 301 303 304 305 305 305 311 318 321 319 317 312 303 297 292 284 276 271 268 264 261 250 238 224 191 181 169 168 176 157 153 239 245 218 199 190 184 178 183 193 198 200 206 208 207 212 220 228 232 225 215 212 227 237 253 264 277 308 316 307 302 308 291 247 237 230 227 233 238 77 104 145 161 190 210 252 241 271 285 248 229 235 207 118 81 37
297 297 298 300 301 303 303 303 309 314 316 319 318 314 302 294 290 281 274 270 267 261 254 248 239 217 181 169 164 174 182 158 136 284 253 207 198 192 182 174 181 195 200 202 206 209 213 216 222 230 234 231 220 214 224 239 260 270 270 280 304 306 291 304 289 221 228 233 222 220 223 159 58 53 168 197 210 221 249 269 273 277 276 262 250 214 131 22
292 292 293 296 297 301 301 300 307 312 313 316 317 311 298 296 295 287 281 269 256 256 251 245 242 219 186 175 171 176 178 166 126 328 265 201 189 188 183 179 185 196 198 200 204 209 215 220 227 233 238 240 230 225 235 248 263 274 272 271 290 304 291 291 266 215 216 223 212 207 213 202 8 354 187 206 223 229 284 295 275 270 275 275 275 275 270 328
289 288 288 289 293 297 299 299 302 308 310 313 317 313 302 296 297 297 295 285 239 248 253 241 243 222 190 185 184 192 202 191 181 237 221 196 185 183 185 188 192 199 197 193 198 205 217 227 232 235 243 249 235 229 242 257 267 275 272 267 277 293 288 260 231 221 220 214 199 201 205 200 221 262 205 202 227 237 282 293 280 270 269 277 281 283 304 335
288 286 284 283 287 293 296 296 297 303 305 309 321 321 310 296 294 298 298 302 270 245 259 249 245 219 185 184 188 203 217 196 183 214 214 195 186 185 189 194 197 202 200 196 198 201 214 228 229 227 236 243 231 224 249 270 272 272 270 267 268 274 279 246 219 221 218 209 204 202 200 204 219 233 212 197 214 225 228 240 266 271 267 271 275 276 288 312
287 285 282 279 281 287 292 291 290 297 300 305 321 321 312 302 299 301 294 300 297 246 269 261 243 214 183 184 193 198 213 203 188 214 222 201 189 190 193 198 203 209 209 207 207 208 219 232 231 226 232 236 234 233 248 263 271 280 277 276 271 264 278 288 235 222 212 207 215 203 199 214 222 227 217 207 219 223 222 230 257 267 261 264 267 263 260 246
287 285 282 277 276 279 284 285 283 291 295 299 314 309 307 307 294 298 300 308 309 250 258 256 235 198 178 189 202 193 197 208 195 212 229 211 196 194 192 194 206 216 220 215 216 219 226 234 235 235 237 242 254 257 253 258 272 285 282 283 280 263 270 291 165 190 198 205 210 197 191 219 220 228 229 220 227 232 273 268 269 274 262 260 259 253 246 223
287 284 283 277 274 270 274 280 277 284 290 293 305 301 292 270 278 304 316 320 326 236 236 229 175 175 186 195 201 186 193 214 207 213 226 214 203 201 193 193 204 213 220 213 216 228 231 229 233 237 237 242 256 262 259 264 274 276 274 285 283 268 279 274 174 170 186 202 206 196 206 238 212 217 227 228 239 236 284 303 284 280 264 257 252 247 239 199
285 283 281 278 274 265 261 273 273 277 283 287 295 285 270 261 283 327 329 323 345 103 148 155 128 141 189 199 205 190 182 210 204 209 218 207 203 208 202 203 208 206 206 209 217 228 231 226 232 235 235 238 245 252 254 260 270 270 269 283 281 277 293 270 206 180 182 198 198 200 224 236 203 204 210 221 237 239 253 292 284 266 255 252 247 245 237 202
283 281 279 276 273 263 247 257 265 272 278 283 285 268 257 267 307 339 335 345 36 112 112 135 132 124 168 192 215 205 178 178 194 207 219 204 202 216 214 211 213 207 202 212 221 229 230 229 233 233 235 239 240 246 249 249 260 267 262 258 268 285 292 213 205 199 158 177 188 200 219 224 197 204 204 213 228 249 258 236 229 246 250 252 247 246 236 215
281 278 276 271 269 263 246 246 253 263 272 275 273 253 243 259 302 309 293 11 69 144 118 144 153 145 165 184 212 212 195 188 168 197 214 206 206 219 227 220 212 210 212 218 227 234 233 234 239 240 241 241 241 246 248 249 258 272 267 254 264 299 308 244 230 221 162 180 212 213 212 211 202 203 198 208 225 250 243 188 169 223 254 258 248 242 229 217
282 277 274 267 263 259 250 248 246 251 260 262 259 239 228 224 195 226 296 74 93 133 186 197 185 187 189 191 207 217 207 190 158 184 209 214 212 215 229 232 216 218 225 227 232 235 233 237 245 247 246 246 251 257 256 255 261 270 270 258 265 302 317 295 243 220 185 230 260 249 215 208 215 204 196 198 219 298 62 196 197 223 252 258 245 230 219 212
286 276 273 267 258 253 250 248 242 243 248 248 243 228 218 207 194 195 186 170 162 192 213 211 196 205 217 206 216 225 214 199 203 214 214 214 212 211 219 226 223 227 233 236 236 235 236 242 246 247 248 250 257 263 260 257 258 259 266 267 268 293 316 314 250 217 200 250 269 261 201 197 194 179 190 180 149 23 20 282 271 273 259 248 236 224 216 206
290 277 274 269 255 241 240 242 238 233 238 238 230 222 213 205 213 217 192 163 143 270 240 233 214 209 218 223 227 232 220 206 210 215 219 216 211 212 216 219 223 228 236 242 241 240 244 246 245 245 243 245 254 261 262 257 251 251 258 260 257 304 333 302 280 204 211 243 260 202 160 169 157 164 161 60 39 35 27 355 310 289 277 234 222 222 218 202
292 281 276 271 258 224 223 234 231 222 230 233 224 219 207 197 228 227 205 166 48 7 331 282 241 213 207 203 194 221 228 227 213 207 215 222 217 218 221 224 229 231 235 243 247 252 253 245 242 244 240 238 244 250 251 238 229 238 245 241 225 148 69 272 283 302 246 260 271 184 168 160 152 184 151 68 42 52 41 17 340 264 280 216 212 219 219 198
292 287 280 273 259 216 214 228 226 218 223 225 221 217 207 209 229 223 214 222 349 347 349 331 268 213 199 205 155 197 223 228 218 210 211 216 220 221 220 224 233 236 236 241 249 253 256 250 238 235 238 234 230 235 242 229 210 217 229 231 225 215 201 215 231 215 244 283 306 123 190 171 162 177 154 103 52 86 77 44 109 217 214 194 205 212 211 197
291 293 289 273 252 218 214 224 223 218 220 220 219 216 215 222 226 222 242 248 334 327 350 1 272 211 201 208 215 211 225 222 209 212 216 215 220 220 219 228 238 237 234 235 241 245 251 254 234 224 239 233 220 223 234 236 223 211 215 225 226 225 223 223 228 225 246 305 28 116 131 169 175 177 174 168 233 201 113 62 153 202 169 185 198 205 208 200
292 297 294 270 240 219 216 221 220 216 218 220 222 222 226 231 230 228 232 184 334 335 348 5 193 202 205 208 215 212 219 225 204 209 223 223 226 225 224 237 244 241 235 230 232 237 242 245 235 234 248 230 220 224 225 228 228 211 214 222 220 228 241 240 243 247 254 310 118 135 128 151 168 174 187 197 227 234 234 88 211 131 81 153 174 192 205 199
298 298 287 252 228 219 215 217 217 216 218 221 224 229 237 242 239 237 241 263 326 336 338 343 309 196 207 212 217 212 216 221 202 209 224 219 223 228 230 241 245 241 239 233 234 233 238 248 242 242 252 236 229 236 232 228 230 213 212 220 221 234 255 245 239 266 264 57 165 169 155 162 175 180 192 201 222 240 238 229 195 150 129 14 149 172 190 191
301 287 260 230 224 222 218 218 218 218 221 226 229 235 244 246 246 251 259 279 304 321 326 327 324 300 244 221 239 233 222 212 196 209 221 212 221 232 234 239 243 241 238 233 235 235 241 253 249 241 250 258 250 240 229 225 234 237 225 224 228 238 250 238 225 216 203 122 183 173 163 176 196 211 202 201 218 235 239 231 185 166 184 214 162 166 176 189
276 217 214 206 203 209 215 217 220 223 226 230 234 238 245 252 255 262 270 278 294 313 322 324 316 314 320 321 336 324 246 215 200 209 214 210 225 239 241 239 239 241 237 227 231 236 237 246 253 247 246 277 267 229 216 213 222 236 237 235 242 247 256 255 234 205 182 184 179 155 182 203 215 229 214 199 214 230 245 229 163 155 176 133 169 170 171 186
171 175 185 176 165 180 208 212 216 225 229 233 239 243 251 262 263 265 273 280 290 303 313 319 313 304 303 299 315 328 285 221 207 216 218 218 229 240 252 248 239 238 233 225 229 236 233 236 247 249 248 284 268 217 211 212 214 221 229 235 237 233 240 253 233 209 188 148 148 141 230 226 209 206 188 158 189 194 202 168 146 138 141 134 156 165 170 180
168 176 186 173 159 161 197 214 218 227 233 236 241 249 258 268 275 266 236 251 299 308 310 316 313 298 291 294 298 305 303 272 250 250 241 235 238 245 266 271 249 236 224 220 224 228 229 233 244 251 260 280 274 224 213 214 213 215 223 234 234 223 225 234 229 216 213 209 176 163 192 204 172 161 148 119 140 139 106 124 140 131 121 121 141 155 166 179
167 175 189 183 171 168 182 208 222 229 233 237 243 254 264 272 282 272 214 264 317 312 302 309 316 306 285 288 300 300 300 297 294 293 275 256 258 265 291 306 268 236 217 215 220 223 226 232 243 253 262 276 288 252 220 217 218 219 225 245 238 217 217 224 229 215 209 211 174 158 158 174 164 152 143 141 149 156 137 130 143 132 119 114 134 154 165 177
165 171 183 183 187 193 193 201 225 238 239 240 244 251 272 287 291 295 298 309 311 301 293 295 304 315 304 293 297 298 294 292 291 295 289 270 266 279 333 339 291 234 218 214 216 217 220 226 237 248 257 264 279 271 225 217 220 220 224 242 242 230 224 229 241 237 228 196 145 142 145 184 173 156 153 169 176 175 155 142 160 141 120 114 128 156 171 180
167 168 176 179 201 230 221 206 227 256 252 250 256 265 293 304 305 310 305 300 295 286 288 292 285 291 306 292 283 291 291 285 282 289 292 275 268 295 357 323 295 238 219 215 216 214 214 221 227 232 260 271 275 275 231 218 219 218 221 230 235 241 239 236 242 242 251 245 166 158 184 188 174 162 170 189 189 174 154 144 153 131 110 113 119 144 169 184
177 174 178 184 202 220 220 223 262 282 270 261 268 273 279 287 289 289 287 283 281 276 277 287 286 282 293 282 270 281 281 272 272 279 289 285 274 296 21 244 282 266 217 213 219 218 214 221 225 217 214 244 250 260 210 207 216 218 223 226 225 235 242 242 240 226 235 248 202 176 181 179 175 174 185 196 186 171 160 152 155 142 125 126 115 131 165 186
188 186 187 192 202 207 202 210 233 249 260 262 264 265 268 277 278 274 274 272 271 269 268 281 287 280 281 275 258 262 257 256 275 276 284 293 277 266 351 332 311 273 205 198 200 208 212 219 230 232 233 240 246 251 245 239 253 246 243 247 234 230 235 240 241 232 232 243 236 227 209 181 177 178 186 194 188 176 169 164 171 176 161 142 114 115 155 185
195 193 193 194 201 207 204 205 221 233 244 257 267 272 273 280 284 277 275 274 270 265 263 277 288 280 273 265 249 266 242 253 278 280 283 295 281 260 265 330 308 192 164 170 180 192 205 215 234 247 246 252 261 268 271 282 294 291 272 276 271 248 238 238 243 243 237 236 238 236 225 194 181 180 185 190 186 179 180 176 188 194 156 131 115 101 126 175
203 200 198 196 198 204 207 215 229 237 239 245 264 281 281 279 285 284 280 278 274 268 266 273 282 278 266 251 253 272 280 267 286 291 287 293 289 272 262 283 252 173 152 155 176 187 193 215 247 260 260 264 270 279 282 281 289 283 266 279 293 286 265 245 243 246 238 235 240 235 225 207 188 184 187 187 174 156 173 181 186 179 151 133 135 133 166 171
211 208 204 201 201 204 207 213 226 234 237 245 264 289 290 279 281 286 284 281 275 269 270 278 286 284 266 237 239 236 66 14 341 329 312 302 298 289 267 254 222 178 173 158 163 183 187 201 267 268 277 288 288 291 293 286 287 282 274 281 287 293 293 261 244 243 232 231 244 244 222 210 199 190 184 176 156 135 160 182 184 181 173 167 164 171 196 176
220 216 213 209 208 210 207 205 206 211 224 245 266 303 301 285 280 283 281 280 279 273 272 280 289 291 275 241 231 213 120 75 49 25 10 342 305 302 271 248 241 194 182 164 135 175 186 186 272 280 279 292 321 333 322 309 320 300 282 282 277 285 302 286 256 247 231 230 237 219 198 193 187 181 174 166 160 158 169 180 186 201 205 198 202 199 191 169
228 221 219 215 211 210 209 208 206 200 203 224 256 310 302 284 278 281 280 280 282 281 279 280 277 275 276 251 228 218 207 188 171 128 47 9 313 289 240 245 243 226 194 151 133 175 192 201 232 269 295 307 339 349 330 273 339 318 289 296 294 289 295 291 271 280 273 253 207 177 190 192 178 174 175 173 170 167 173 189 206 225 216 202 212 193 170 156
232 226 223 220 214 210 213 217 218 215 208 209 246 320 305 281 271 271 277 280 281 284 288 287 278 271 275 260 224 215 215 208 197 187 160 11 289 252 224 231 231 237 251 155 143 180 193 184 193 240 309 330 346 351 343 315 341 340 339 341 331 311 298 283 274 284 285 262 213 190 203 201 185 179 177 176 175 171 179 196 203 215 204 190 176 158 157 151